Regional Weather Roundup
Issued by NWS

Home | Current Version | Previous Version | Text Only | Print | Product List | Glossary On
Versions: 1 2 3 4 5 6 7 8 9 10 11 12 13 14 15 16 17 18 19 20 21 22 23 24 25 26 27 28 29 30 31 32 33 34 35 36 37 38 39 40 41 42 43 44 45 46 47 48 49 50
000
ASUS43 KLSX 010559
RWRMO

WEATHER SUMMARY FOR MISSOURI
NATIONAL WEATHER SERVICE SPRINGFIELD MO
1200 AM CST SUN FEB 01 2015

NOTE: "FAIR" INDICATES FEW OR NO CLOUDS BELOW 12,000 FEET WITH NO
       SIGNIFICANT WEATHER AND/OR OBSTRUCTIONS TO VISIBILITY.
       CURRENT SKY AND/OR WEATHER CONDITIONS ARE NOT AVAILABLE FOR
       CHILLICOTHE AND FARMINGTON.

MOZ001>031-035>038-043-044-053-054-010700-
...NORTHERN AND WESTERN MISSOURI...

CITY           SKY/WX    TMP DP  RH WIND       PRES   REMARKS
KANSAS CTY INT LGT SNOW  33  33 100 SE10      29.85F FOG     WCI  25
6HR MIN TEMP:  33; 6HR MAX TEMP:  35; 6HR PCP:  0.30;

KANSAS C DTWN  LGT SNOW  34  32  92 E5        29.86F FOG     WCI  30
6HR MIN TEMP:  34; 6HR MAX TEMP:  37; 6HR PCP:  0.16;

LEE`S SUMMIT   LGT SNOW  33  32  96 SE7       29.86F FOG     WCI  27
6HR MIN TEMP:  33; 6HR MAX TEMP:  36; 6HR PCP:  0.26;

ST JOSEPH      LGT SNOW  32  32 100 SE3       29.86F VSB 3/4
6HR MIN TEMP:  32; 6HR MAX TEMP:  33; 6HR PCP:  0.41;

CHILLICOTHE      N/A     33  32  96 SE7       29.92F WCI  27
6HR MIN TEMP:  33; 6HR MAX TEMP:  36; 6HR PCP:  0.48;

KIRKSVILLE     LGT SNOW  33  33 100 SE12      29.93F VSB 3/4 WCI  24
6HR MIN TEMP:  33; 6HR MAX TEMP:  33; 6HR PCP:  0.64;


$$
MOZ066>068-077>081-088>096-101>105-010700-
...SOUTHWEST MISSOURI...

CITY           SKY/WX    TMP DP  RH WIND       PRES   REMARKS
SPRINGFIELD    LGT RAIN  37  33  85 S22G30    29.85F WCI  26
6HR MIN TEMP:  37; 6HR MAX TEMP:  43; 6HR PCP:  0.03;

JOPLIN         RAIN      39  38  96 S7        29.86F FOG
6HR MIN TEMP:  39; 6HR MAX TEMP:  45; 6HR PCP:  0.24;


$$
MOZ032>034-039>042-045>050-055>058-069>072-010700-
...CENTRAL MISSOURI...

CITY           SKY/WX    TMP DP  RH WIND       PRES   REMARKS
COLUMBIA       LGT RAIN  35  30  82 E7        29.94F WCI  29
6HR MIN TEMP:  35; 6HR MAX TEMP:  38; 6HR PCP:  0.05;

JEFFERSON CITY LGT RAIN  36  30  79 SE8       29.95F WCI  30
6HR MIN TEMP:  36; 6HR MAX TEMP:  40; 6HR PCP:  0.04;

ROLLA          LGT RAIN  35  29  78 SE10      29.91F WCI  27
6HR MIN TEMP:  35; 6HR MAX TEMP:  39; 6HR PCP:  0.02;

SEDALIA        LGT RAIN  35  33  92 E6        29.92F
6HR MIN TEMP:  35; 6HR MAX TEMP:  38; 6HR PCP:  0.19;

OSAGE BEACH    CLOUDY    36  30  80 SE7       29.90F WCI  30

$$
MOZ051-052-059>065-010700-
...EAST CENTRAL MISSOURI...

CITY           SKY/WX    TMP DP  RH WIND       PRES   REMARKS
ST LOUIS INTL  CLOUDY    41  25  53 SE22      30.02F
6HR MIN TEMP:  40; 6HR MAX TEMP:  44; 6HR PCP: TRACE;

SPIRIT OF STL  LGT RAIN  40  25  55 SE7       29.99F
6HR MIN TEMP:  39; 6HR MAX TEMP:  43; 6HR PCP: TRACE;

ST CHARLES     CLOUDY    36  29  75 E5        30.03F
6HR MIN TEMP:  36; 6HR MAX TEMP:  40; 6HR PCP:  0.01;


$$
MOZ072>076-082>087-097>100-106>115-010700-
...SOUTH CENTRAL AND SOUTHEAST MISSOURI...

CITY           SKY/WX    TMP DP  RH WIND       PRES   REMARKS
CAPE GIRARDEAU CLOUDY    39  27  62 SE7       30.06F
6HR MIN TEMP:  38; 6HR MAX TEMP:  41;

FARMINGTON     CLOUDY    37  25  60 SE12      30.02F WCI  30
6HR MIN TEMP:  37; 6HR MAX TEMP:  39;

POPLAR BLUFF   CLOUDY    37  30  75 CALM      30.03F
6HR MIN TEMP:  37; 6HR MAX TEMP:  40;

WEST PLAINS    CLOUDY    38  24  57 S13       29.96F WCI  30
6HR MIN TEMP:  38; 6HR MAX TEMP:  42;


$$


USA.gov is the U.S. government's official web portal to all federal, state and local government web resources and services.